TimeMST,TemperatureF,Dew PointF,Humidity,Sea Level PressureIn,VisibilityMPH,Wind Direction,Wind SpeedMPH,Gust SpeedMPH,PrecipitationIn,Events,Conditions,WindDirDegrees,DateUTC
12:53 AM,18.0,-24.0,14,30.25,10.0,Calm,Calm,-,N/A,,Clear,0,2013-01-23 07:53:00
1:53 AM,18.0,-20.0,18,30.27,10.0,NE,4.6,-,N/A,,Clear,40,2013-01-23 08:53:00
2:53 AM,18.0,-24.0,14,30.26,10.0,Calm,Calm,-,N/A,,Clear,0,2013-01-23 09:53:00
3:53 AM,19.0,-20.0,17,30.26,10.0,Variable,4.6,-,N/A,,Clear,0,2013-01-23 10:53:00
4:53 AM,25.0,-24.0,11,30.23,10.0,NNE,10.4,-,N/A,,Clear,20,2013-01-23 11:53:00
5:53 AM,23.0,-22.0,13,30.26,10.0,NNE,8.1,-,N/A,,Clear,30,2013-01-23 12:53:00
6:53 AM,21.9,-20.9,14,30.30,10.0,NNE,8.1,-,N/A,,Clear,30,2013-01-23 13:53:00
7:53 AM,25.0,-20.9,13,30.32,10.0,Variable,4.6,-,N/A,,Clear,0,2013-01-23 14:53:00
8:53 AM,19.9,-20.9,15,30.42,10.0,Calm,Calm,-,N/A,,Clear,0,2013-01-23 15:53:00
9:53 AM,30.0,-13.0,15,30.35,10.0,Calm,Calm,-,N/A,,Clear,0,2013-01-23 16:53:00
10:53 AM,37.9,-14.1,10,30.31,10.0,Calm,Calm,-,N/A,,Clear,0,2013-01-23 17:53:00
11:53 AM,44.1,-9.0,11,30.22,10.0,West,3.5,-,N/A,,Clear,270,2013-01-23 18:53:00
12:53 PM,46.9,-11.9,8,30.16,10.0,WNW,5.8,-,N/A,,Clear,300,2013-01-23 19:53:00
1:53 PM,45.0,-4.0,13,30.16,10.0,WNW,15.0,19.6,N/A,,Clear,300,2013-01-23 20:53:00
2:53 PM,44.1,-4.0,13,30.18,10.0,NW,9.2,-,N/A,,Clear,320,2013-01-23 21:53:00
3:53 PM,42.1,-4.0,14,30.18,10.0,NNW,6.9,-,N/A,,Clear,330,2013-01-23 22:53:00
4:53 PM,37.9,-5.1,16,30.17,10.0,ESE,3.5,-,N/A,,Clear,110,2013-01-23 23:53:00
5:53 PM,33.1,-0.9,23,30.23,10.0,North,10.4,-,N/A,,Clear,10,2013-01-24 00:53:00
6:53 PM,34.0,-7.1,17,30.24,10.0,Calm,Calm,-,N/A,,Clear,0,2013-01-24 01:53:00
7:53 PM,32.0,-4.0,21,30.22,10.0,NNE,4.6,-,N/A,,Clear,30,2013-01-24 02:53:00
8:53 PM,33.1,-8.0,17,30.24,10.0,NNE,3.5,-,N/A,,Clear,20,2013-01-24 03:53:00
9:53 PM,26.1,-2.0,30,30.22,10.0,ENE,5.8,-,N/A,,Clear,60,2013-01-24 04:53:00
10:53 PM,28.0,-5.1,24,30.15,10.0,Calm,Calm,-,N/A,,Clear,0,2013-01-24 05:53:00
11:53 PM,25.0,-2.9,30,30.11,10.0,Calm,Calm,-,N/A,,Clear,0,2013-01-24 06:53:00